Погода в Славгороде

Хотите узнать прогноз погоды в Славгороде? Тогда Вам сюда: Погода в Славгороде

Поиск расширенной информации на нашем сайте:

Полезная информация:

Новости сайта



02.01.2020
Опубликован Долгосрочный прогноз погоды по городам России и ближнего зарубежья на январь 2020 года.
Карты: Прогноз на январь и февраль 2020 года, Сравнение прогнозируемой аномалии приземной температуры воздуха на январь 2020 года по разным моделям.




Погода в Славгороде - сегодня

Время (UTC), дата Ветер
(°,м/с) 
Видим.   Явления Облачность Т
(°С)
Тd
(°С)
f(%) Тe
(°С)
Pmin
(гПа)
dP
(гПа)
Po
(мм)
O2
(г/м3)
Тmin Tmax R s Состояние
почвы
00 19.01.20 250 (З) 5{11}  10 км  слаб. ливневой снег  10/10 720 м кучево-дожд. 
[Cb cap]
-4.7 -6.2 89 -9  1015.3  -1.9  749  308  -15.4    23  неравномерный
сухой снег
100% 
03 19.01.20 260 (З) 8-11{11}  10 км  слаб. ливневой снег  10/10 700 м кучево-дожд. 
[Cb cap]
-5 -6.6 89 -10  1014.5  -0.8  749  308           
06 19.01.20 260 (З) 7-12{13}  4000 м  слаб. ливневой снег  10/10 660 м кучево-дожд. 
[Cb cap]
-4 -5.7 88 -9  1014.4  749  307           
09 19.01.20 270 (З) 7-11{12}  4000 м  слаб. ливневой снег  10/10 600 м кучево-дожд. 
[Cb cap]
-3.4 -5.3 87 -8  1014.5  0.1  749  306           
12 19.01.20 310 (СЗ) 5{12}  20000 м  позёмок{ливн. осадки}  1/1 600 м кучево-дожд. 
[Cb cap]
-11.3 -13.9 81 -16  1018.7  3.6  752  317    -3.4     
15 19.01.20 280 (З) 20000 м    ясно 
-16.9 -19.2 82 -22  1022.2  3.1  754  325           
18 19.01.20 280 (З) 20000 м    ясно 
-19 -21.5 81 -23  1024.3  755  329           
21 19.01.20 300 (СЗ) 20000 м    ясно 
-16.8 -19.3 81 -21  1026.2  757  327           
00 20.01.20 300 (СЗ) 20000 м    ясно 
-21.9 -24.8 77 -25  1028.3  1.6  758  334  -21.9      22  неравномерный
сухой снег
100% 
03 20.01.20 280 (З) 20000 м    3/3 600 м 
[Sc]
-25.3 -28.6 74 -29  1029.8  1.3  759  339  -25.3         
06 20.01.20 260 (З) 20000 м    6/0 верхняя 
[Ci sp]
-22.2 -25.4 75 -23  1030.1  0.6  760  335           
09 20.01.20 190 (Ю) 20000 м    8/0 верхняя 
[Ci sp]
-21.3 -24.1 78 -22  1029.2  -0.9  759  333           
12 20.01.20 150 (ЮВ) 20000 м    10/0 средняя, верхняя 
[Ac trans|Ci sp]
-19.8 -22.5 79 -24  1028.3  -0.8  758  331    -19.8       
15 20.01.20 160 (Ю) 20000 м    10/0 средняя, верхняя 
[Ac trans|Ci sp]
-19.1 -21.8 79 -23  1026.3  -1.9  757  330           
18 20.01.20 140 (ЮВ) 20000 м    10/0 верхняя 
[Ci sp]
-16.8 -19.3 81 -19  1024.3  -1.8  755  326           
21 20.01.20 130 (ЮВ) 20000 м    10/6 720 м кучево-дожд., верхняя 
[Cb cap|Ci sp]
-16.1 -18.5 82 -18  1021.7  -2.6  754  324           
00 21.01.20 120 (ЮВ) 10 км  слаб. ливневой снег  10/10 660 м кучево-дожд. 
[Cb cap]
-15.2 -17.6 82 -19  1019.2  -2.3  752  322  -20.2    0.3  22  неравномерный
сухой снег
100% 
03 21.01.20 130 (ЮВ) 20000 м  {ливн. осадки}  10/3 600 м кучево-дожд., верхняя 
[Cb cap|Ci sp]
-14.5 -16.9 82 -17  1018.2  -1  751  321           
06 21.01.20 100 (В) 20000 м  в посл. час снег{ливн. осадки}  10/0 средняя 
[As op]
-14.4 -17 81 -18  1018.2  0.1  751  321           
09 21.01.20 090 (В) 20000 м    10/0 средняя 
[As trans]
-13.6 -16.5 79 -17  1018.6  0.4  751  320           
12 21.01.20 100 (В) 20000 м    ясно 
-16.9 -19.3 82 -21  1020.1  1.3  752  325    -13.3  0.3     
15 21.01.20 120 (ЮВ) 20000 м    ясно 
-18.9 -21.4 81 -23  1020.7  0.4  753  327           
18 21.01.20 120 (ЮВ) 4000 м  дымка  ясно 
-15.6 -18 82 -18  1020.1  -0.4  752  323           
21 21.01.20 100 (В) 20000 м    6/6 960 м 
[Sc]
-14.8 -17.1 83 -17  1019.2  -0.8  752  322           
00 22.01.20 140 (ЮВ) 20000 м  слаб. снег  10/10 900 м 
[Sc]
-12.9 -15 84 -15  1017.8  -1.3  751  319  -18.9    0.2  22  неравномерный
сухой снег
100% 
Время (UTC), дата Ветер
(°,м/с) 
Видим.   Явления Облачность Т
(°С)
Тd
(°С)
f(%) Тe
(°С)
Pmin
(гПа)
dP
(гПа)
Po
(мм)
O2
(г/м3)
Тmin Tmax R s Состояние
почвы

Для получения пояснительной информации подведите курсор к названию столбца.

ПОГОДА в Славгороде - архив

Всё, что Вы хотите узнать о погоде в Славгороде - удобно и подробно!

Выберите нужную дату (начиная с 1 января 2019* года) и нажмите кнопку "Найти".
Будут отображены архивные сводки погоды по пункту Славгород, начиная с указанной даты.


Отображать данные в формате CSV (для использования в таблицах Excel)


Внимание! Наш архив погоды предназначен исключительно для личного некоммерческого использования в познавательных целях. Если Вам необходимы официальные справки о состоянии погоды (для производственных, юридических, коммерческих и т.п. целей), обращайтесь в органы Росгидромета.

*Примечание: данная дата относится к архиву по метеостанциям СССР (Россия, СНГ, Балтия).
Архив по метеостанциям Зарубежной Европы и Азии (кроме Китая) хранится 10 дней, по другим регионам земного шара (Китай, Африка, Америка, Австралия, Океания) - 1 день.

Славгород - район местоположения метеостанции


Название, широта, долгота, высота метеостанции:
Славгород 53°ш. 78.6°д. 126 м над ур. моря [Российская Федерация]

Дополнительная информация

В oтличие oт бoльшинства пoгoдных сайтoв мы публикуем пoдрoбную метеoинфoрмацию в детальнoм прoфессиoнальнoм фoрмате.

Характеристики температуры и влажнoсти вoздуха измеряются на высoте 2 м в тени вдали oт зданий и деревьев.
Скoрoсть ветра измеряется на высoте 10 м (на урoвне рoста челoвека скoрoсть ветра ниже в 1.5-2 раза). Если метеoстанция нахoдится в гoрoде или в лесу, тo скoрoсть ветра занижена на 2-4 м/с пo сравнению с oткрытым местoм. Скoрoсть ветра над акватoриями крупных рек и oзёр, а также на вершинах хoлмoв на 2-5 м/с выше, чем в oбычных услoвиях.
Атмoсфернoе давление в разных тoчках местнoсти мoжет значительнo oтличаться oт давления на метеoстанции, в зависимoсти oт услoвий рельефа (при пoдъёме на 10 м давление пoнижается примернo на 1 мм рт.ст.).